CAPE
33 21 14 3 14 37 7 0 0 0 52 27 6 11 0 0 0 0 3 0 1 6 0 0 0 0 0 0 0 2 10 17 2 1 0 0 0 13 0 0 0 0 0 0
2 21 11 6 8 32 0 0 0 0 86 2 0 2 0 0 4 2 1 16 14 0 16 11 2 0 0 0 11 0 0 17 8 0 0 1 2 0 0 1 0 0 0 0
7 22 29 15 10 10 0 0 0 0 27 14 0 0 0 7 0 2 4 4 0 0 4 1 0 0 0 0 0 1 0 0 5 1 0 0 0 1 3 1 0 0 0 0
1 16 97 42 13 13 0 0 0 0 0 0 1 8 2 0 1 6 0 2 0 0 0 1 2 0 0 0 0 1 0 0 0 0 0 0 1 2 1 0 1 1 0 0
20 7 88 65 30 15 0 0 0 0 0 0 0 0 0 0 0 0 0 1 3 0 0 0 0 0 14 13 0 0 1 0 0 0 0 0 0 0 0 0 0 1 0 0
24 31 28 35 43 7 0 0 0 0 0 0 0 0 0 0 6 8 1 0 0 0 0 0 0 1 9 19 7 2 3 2 0 0 0 2 1 0 0 0 0 0 0 0
11 22 24 6 30 6 0 0 0 0 0 0 0 0 0 0 0 0 0 0 1 2 0 0 0 1 7 12 0 11 3 1 6 6 0 1 0 0 0 0 0 0 0 0
8 24 32 19 32 27 0 0 0 0 0 0 0 0 0 0 0 0 0 0 0 0 0 0 0 0 0 0 0 0 0 0 5 14 18 0 0 0 0 0 0 0 0 0
20 25 34 27 3 51 0 0 0 0 0 0 0 0 0 0 0 0 0 0 0 0 0 2 0 0 0 0 0 0 0 0 0 0 0 0 0 0 0 0 0 0 0 0
15 11 5 8 19 17 7 0 0 0 0 0 0 0 0 0 0 0 0 0 0 47 0 5 0 0 0 0 0 0 1 4 0 0 2 2 0 0 0 1 0 0 0 0
12 17 10 7 9 28 19 1 0 0 0 0 0 0 0 0 0 0 0 0 0 1 26 7 2 2 0 0 0 0 0 7 5 16 10 0 0 0 0 0 0 0 0 0
40 12 21 24 14 24 34 5 0 0 0 0 0 0 0 0 0 0 0 0 0 0 0 2 0 7 0 0 0 0 1 2 2 1 0 0 0 0 0 0 0 0 0 0
19 17 41 42 44 23 33 1 1 0 0 0 0 0 0 0 0 0 0 4 4 10 0 1 0 1 0 0 0 0 0 0 0 0 0 0 0 0 0 0 0 0 0 0
17 9 39 44 26 40 47 0 2 0 0 0 0 0 0 0 0 0 0 0 0 4 5 0 0 2 0 0 0 0 0 0 0 0 0 0 0 0 0 0 0 0 0 0
14 7 8 21 41 54 23 1 2 0 0 0 0 0 0 0 0 0 0 0 0 3 3 1 3 4 4 0 0 0 0 0 0 0 0 0 0 0 0 0 0 0 0 0
17 15 15 9 17 4 0 0 0 3 0 0 0 0 0 0 0 0 0 0 5 7 5 3 3 0 17 0 0 0 0 0 0 0 0 0 0 0 0 2 0 0 0 0
5 13 16 28 5 2 0 0 0 1 0 0 0 0 3 0 1 1 2 3 1 1 0 0 6 11 3 0 0 0 0 0 0 0 0 0 0 0 0 0 0 0 0 0
5 3 5 8 6 2 0 2 1 1 2 0 0 0 0 1 6 8 10 4 0 0 0 0 1 0 0 0 0 0 0 0 0 0 0 0 0 0 0 0 0 0 0 0
7 13 3 0 0 0 3 15 7 8 0 0 0 0 0 0 0 0 0 0 0 0 0 0 0 0 0 0 0 0 0 0 0 0 0 0 0 0 0 0 0 0 0 0
1 0 0 0 0 0 0 0 0 1 0 1 0 1 0 0 0 0 0 0 0 0 0 0 0 0 0 0 0 0 0 0 0 0 0 0 0 0 0 0 0 0 0 0
0 0 0 0 1 0 0 0 0 0 0 0 0 0 0 0 0 0 0 0 0 0 0 0 0 0 0 0 0 0 0 0 0 0 0 0 0 0 0 0 0 0 0 0
0 0 3 4 0 0 0 0 0 0 0 0 0 0 0 0 0 0 0 0 0 0 0 0 0 0 0 0 0 0 0 0 0 0 0 0 0 0 0 0 0 0 0 0
0 0 0 0 0 0 0 0 0 0 0 0 0 0 0 0 0 0 0 0 0 0 0 0 0 0 0 0 0 0 0 0 0 0 0 0 0 0 0 0 0 0 0 0
0 0 0 0 0 0 0 0 0 0 0 0 0 0 0 0 0 0 0 0 0 1 0 0 0 0 0 1 0 0 0 0 0 0 0 0 0 0 0 0 0 0 0 0
0 0 0 0 0 0 0 0 0 1 0 0 0 0 0 0 0 0 0 0 0 0 0 0 0 0 0 0 0 0 0 0 0 0 0 0 0 0 0 1 1 0 0 0
0 0 0 0 0 0 0 0 0 0 0 0 0 0 0 0 0 0 0 0 0 0 0 0 0 0 0 1 0 1 1 0 0 0 0 0 0 0 1 0 0 0 0 0
0 0 1 0 0 0 0 0 0 1 0 0 0 0 0 0 0 0 0 0 0 0 0 0 0 0 0 0 1 0 0 0 0 0 0 1 0 0 0 0 0 0 0 0
CIN
-5 -6 -3 -0 -0 -6 -11 -0 -0 -0 -10 -2 -4 -0 -0 -0 -0 -0 -4 -0 -0 -22 -22 -0 -0 -0 -0 -0 -0 -18 -56 -3 -5 -5 -0 -0 -0 -1 -0 -0 -0 -0 -0 -0
-9 -4 -0 -1 -2 -4 -0 -0 -0 -0 -0 -3 -0 -0 -0 -0 -1 -2 -1 -8 -17 -24 -3 -9 -26 -0 -0 -0 -34 -0 -0 -20 -0 -0 -0 -0 -0 -0 -0 -0 -0 -0 -0 -0
-0 -5 -1 -1 -1 -9 -0 -0 -0 -0 -5 -6 -0 -0 -0 -1 -0 -0 -1 -10 -25 -0 -4 -12 -32 -0 -0 -0 -0 -13 -8 -0 -20 -3 -0 -0 -0 -0 -0 -0 -0 -0 -0 -0
-0 -1 -0 -2 -3 -0 -0 -0 -0 -0 -0 -0 -0 -6 -11 -0 -0 -1 -0 -4 -0 -0 -0 -0 -0 -0 -0 -0 -0 -14 -3 -0 -0 -0 -0 -0 -0 -0 -0 -0 -0 -0 -0 -0
-1 -0 -0 -4 -1 -4 -0 -0 -0 -0 -0 -0 -0 -0 -0 -0 -0 -0 -0 -0 -1 -0 -0 -0 -0 -0 -6 -6 -0 -0 -6 -0 -0 -0 -0 -0 -0 -0 -0 -0 -0 -0 -0 -0
-4 -0 -1 -5 -3 -1 -0 -0 -0 -0 -0 -0 -0 -0 -0 -0 -12 -5 -0 -0 -0 -0 -0 -0 -0 -5 -2 -2 -0 -0 -3 -5 -0 -0 -0 -5 -0 -0 -0 -0 -0 -0 -0 -0
-5 -2 -1 -5 -7 -0 -0 -0 -0 -0 -0 -0 -0 -0 -0 -0 -0 -0 -0 -0 -0 -1 -0 -0 -0 -4 -6 -22 -0 -4 -3 -0 -0 -6 -0 -0 -0 -0 -0 -0 -0 -0 -0 -0
-3 -1 -1 -6 -6 -0 -0 -0 -0 -0 -0 -0 -0 -0 -0 -0 -0 -0 -0 -0 -0 -0 -0 -0 -0 -0 -0 -0 -0 -0 -0 -0 -1 -1 -5 -0 -0 -0 -0 -0 -0 -0 -0 -0
-1 -1 -1 -1 -9 -1 -0 -0 -0 -0 -0 -0 -0 -0 -0 -0 -0 -0 -0 -0 -0 -0 -0 -0 -0 -0 -0 -0 -0 -0 -0 -0 -0 -0 -0 -1 -0 -0 -0 -0 -0 -0 -0 -0
-0 -0 -1 -1 -1 -5 -4 -0 -0 -0 -0 -0 -0 -0 -0 -0 -0 -0 -0 -0 -0 -3 -0 -0 -0 -0 -0 -0 -0 -0 -0 -0 -0 -0 -0 -4 -0 -0 -0 -3 -0 -0 -0 -0
-0 -0 -0 -1 -1 -1 -0 -1 -0 -0 -1 -0 -0 -0 -0 -0 -0 -0 -0 -0 -4 -0 -0 -0 -0 -3 -0 -0 -0 -0 -0 -7 -1 -3 -5 -0 -0 -0 -0 -0 -0 -0 -0 -0
-0 -0 -0 -0 -0 -1 -0 -0 -0 -0 -0 -0 -0 -0 -0 -0 -0 -0 -0 -0 -0 -0 -0 -0 -0 -16 -1 -0 -0 -0 -1 -1 -3 -4 -0 -0 -0 -0 -0 -0 -0 -0 -0 -0
-0 -0 -0 -0 -0 -0 -0 -0 -0 -0 -0 -0 -0 -0 -0 -0 -0 -0 -0 -0 -1 -1 -0 -0 -0 -0 -0 -0 -0 -0 -0 -0 -2 -0 -0 -0 -0 -0 -0 -0 -0 -0 -0 -0
-0 -0 -0 -0 -0 -0 -0 -0 -0 -0 -0 -0 -0 -0 -0 -0 -0 -0 -0 -0 -0 -0 -2 -0 -0 -0 -0 -0 -0 -0 -0 -0 -0 -0 -0 -0 -0 -0 -0 -0 -0 -0 -0 -0
-0 -0 -0 -0 -0 -0 -1 -0 -0 -0 -0 -0 -0 -0 -0 -0 -0 -0 -0 -0 -0 -0 -0 -0 -0 -0 -0 -0 -0 -0 -0 -0 -0 -0 -0 -0 -0 -0 -0 -0 -0 -0 -0 -0
-0 -0 -0 -0 -0 -0 -0 -0 -0 -0 -0 -0 -0 -0 -0 -0 -0 -0 -0 -0 -0 -0 -0 -0 -0 -0 -2 -0 -0 -0 -0 -0 -0 -0 -0 -0 -0 -0 -0 -47 -5 -0 -0 -0
-1 -0 -0 -0 -0 -0 -0 -0 -0 -0 -0 -0 -0 -0 -2 -0 -0 -1 -0 -0 -0 -0 -0 -0 -0 -1 -6 -0 -0 -0 -0 -0 -0 -0 -0 -0 -0 -0 -0 -0 -0 -0 -0 -0
-0 -0 -0 -0 -0 -0 -0 -0 -0 -0 -1 -3 -0 -0 -0 -34 -0 -0 -0 -0 -0 -0 -0 -0 -0 -0 -0 -0 -0 -0 -0 -0 -0 -0 -0 -0 -0 -0 -0 -0 -0 -0 -0 -0
-0 -0 -0 -0 -0 -0 -0 -0 -1 -9 -0 -0 -0 -0 -0 -0 -0 -0 -0 -0 -0 -0 -0 -0 -0 -0 -0 -0 -0 -0 -0 -0 -0 -0 -0 -0 -0 -0 -0 -0 -0 -0 -0 -0
-0 -0 -0 -0 -0 -0 -0 -0 -0 -0 -0 -1 -0 -9 -0 -0 -0 -0 -0 -0 -0 -0 -0 -0 -0 -0 -0 -0 -0 -0 -0 -0 -0 -0 -0 -0 -0 -0 -0 -0 -0 -0 -0 -0
-0 -0 -0 -0 -2 -0 -0 -0 -0 -0 -0 -0 -0 -0 -0 -0 -0 -0 -0 -0 -0 -0 -0 -0 -0 -0 -0 -0 -0 -0 -0 -0 -0 -0 -0 -0 -0 -0 -0 -0 -0 -0 -0 -0
-0 -0 -2 -1 -0 -0 -0 -0 -0 -0 -0 -0 -0 -0 -0 -0 -0 -0 -0 -0 -0 -0 -0 -0 -0 -0 -0 -0 -0 -0 -0 -0 -0 -0 -0 -0 -0 -0 -0 -0 -0 -0 -0 -0
-0 -0 -0 -0 -0 -0 -0 -0 -1 -0 -0 -0 -0 -7 -0 -0 -0 -0 -0 -0 -0 -0 -0 -0 -0 -0 -0 -0 -0 -0 -0 -0 -0 -0 -0 -0 -0 -0 -0 -0 -0 -0 -0 -0
-0 -0 -0 -0 -0 -0 -0 -0 -0 -0 -0 -0 -0 -0 -0 -0 -0 -0 -0 -0 -0 -0 -0 -0 -0 -0 -0 -0 -0 -0 -0 -0 -0 -0 -0 -0 -0 -0 -0 -0 -0 -0 -0 -0
-0 -0 -0 -0 -0 -0 -0 -0 -0 -0 -0 -0 -0 -0 -0 -0 -0 -0 -0 -0 -0 -0 -0 -0 -0 -0 -0 -0 -0 -0 -0 -0 -0 -0 -0 -0 -0 -0 -0 -0 -0 -0 -0 -0
-0 -0 -0 -0 -0 -0 -0 -0 -0 -0 -0 -0 -0 -0 -0 -0 -0 -0 -0 -0 -0 -0 -0 -0 -0 -0 -0 -0 -0 -0 -0 -0 -0 -0 -0 -0 -0 -0 -0 -0 -0 -0 -0 -0
-0 -0 -0 -0 -0 -0 -0 -0 -0 -0 -0 -0 -0 -0 -0 -0 -0 -0 -0 -0 -0 -0 -0 -0 -0 -0 -0 -0 -0 -0 -0 -0 -0 -0 -0 -0 -0 -0 -0 -0 -0 -0 -0 -0
Wind_Speed
28 24 22 19 18 13 14 21 30 23 14 31 33 36 35 32 34 32 36 36 35 35 34 35 36 41 36 25 24 36 32 32 34 33 29 29 31 30 30 37 37 35 38 37
28 23 21 17 14 12 15 24 27 22 19 34 41 40 38 29 36 36 31 34 34 34 34 36 34 33 28 28 30 31 29 32 39 38 32 29 31 29 28 26 27 27 32 34
25 24 20 18 14 11 14 21 27 26 24 27 32 39 42 39 30 34 33 34 32 32 34 32 32 33 26 29 25 20 22 30 35 39 32 28 30 31 28 28 35 32 34 29
24 22 20 16 14 12 14 22 27 23 25 31 33 31 33 40 41 34 30 34 40 43 43 42 37 33 31 25 21 21 24 37 35 34 34 31 31 33 31 34 31 32 33 36
24 23 22 19 16 14 16 23 25 24 26 25 24 31 40 37 35 32 29 30 31 31 41 44 47 42 33 29 25 27 27 37 34 42 37 36 38 38 34 34 36 36 35 41
15 14 15 19 18 17 20 19 19 23 29 30 32 33 30 29 28 27 28 30 33 36 38 40 41 41 44 42 38 36 32 32 34 46 35 34 40 36 34 35 35 36 38 40
18 17 15 16 19 19 19 19 19 26 36 33 36 34 32 33 33 36 34 31 31 25 33 39 39 39 41 40 37 31 34 33 33 36 31 43 33 29 26 26 27 27 32 33
21 19 18 17 19 23 14 14 10 15 31 33 36 37 38 37 37 40 42 46 38 36 34 32 32 34 37 42 40 37 33 32 34 34 33 35 36 29 28 26 29 30 34 34
23 22 20 19 20 21 14 14 10 8 5 23 25 27 30 35 36 37 40 39 36 28 30 31 33 35 33 33 32 29 31 32 34 37 42 42 32 27 24 25 42 32 28 30
27 25 24 22 22 22 16 15 10 7 17 22 11 18 25 23 27 34 35 34 31 27 34 36 36 32 27 33 31 28 28 32 35 37 41 38 35 29 20 30 35 28 28 28
27 27 27 27 25 24 19 14 12 16 8 11 11 10 16 19 22 29 27 31 28 30 33 34 33 31 25 29 28 27 27 29 32 34 37 46 23 24 30 34 29 27 25 22
22 30 30 28 28 28 25 17 13 12 10 22 15 11 12 10 17 24 24 29 31 24 25 24 25 29 25 27 30 23 28 26 27 28 31 31 31 36 31 28 28 23 24 26
22 22 28 29 28 29 28 15 12 12 14 22 16 14 9 8 10 14 30 27 30 30 25 32 27 27 26 27 28 25 23 18 24 25 30 36 41 36 29 23 27 25 23 19
28 20 26 28 28 25 25 17 12 13 13 17 28 4 12 12 12 14 15 44 41 38 36 34 31 30 24 25 25 22 22 15 23 29 33 36 36 29 26 25 25 23 20 17
25 17 30 27 23 23 16 18 14 14 12 12 14 15 13 13 11 11 14 44 45 42 38 37 39 30 30 25 23 22 20 24 24 29 24 23 25 23 23 19 21 19 14 10
25 37 22 28 14 12 15 20 19 11 12 17 20 18 20 15 8 39 40 40 39 40 35 36 35 40 31 23 23 24 13 12 12 24 23 21 16 22 16 15 19 13 7 5
27 34 12 9 12 12 16 11 15 10 6 13 19 26 6 26 28 33 33 35 31 30 32 36 40 33 26 25 18 14 9 10 8 11 14 18 16 18 17 17 17 15 14 14
8 9 16 15 9 3 8 10 3 5 8 11 27 25 22 17 23 27 26 25 28 27 30 28 26 22 25 26 22 14 16 16 18 20 20 21 20 20 19 18 17 17 17 16
22 20 9 3 8 11 8 4 5 9 10 25 25 24 21 15 21 21 18 19 21 19 23 21 19 19 15 19 14 16 15 17 21 26 27 25 23 22 20 17 19 20 19 15
18 6 6 9 7 5 3 11 12 15 26 26 26 23 24 20 21 18 15 18 18 18 18 15 20 23 26 20 21 25 25 24 24 27 27 22 19 17 19 20 19 19 21 18
5 8 10 5 6 7 11 11 25 26 25 24 24 28 27 23 21 16 16 13 13 15 14 12 13 16 18 19 20 20 23 25 27 25 20 16 17 18 18 20 19 19 18 18
22 26 26 26 17 15 20 26 25 25 23 21 18 18 21 18 18 13 15 15 15 15 12 12 13 14 14 17 20 24 26 28 30 27 19 14 12 14 15 18 20 19 14 11
24 23 24 22 21 21 26 28 22 22 21 22 19 14 15 16 15 11 12 13 14 12 14 16 15 15 16 19 21 23 24 24 21 19 17 15 15 15 17 19 19 15 11 7
19 19 17 17 18 21 25 25 23 22 21 24 23 16 15 14 12 12 13 13 14 14 15 15 16 16 15 17 19 20 21 20 18 18 17 16 15 16 16 16 15 13 11 7
16 17 16 16 16 17 18 20 19 21 22 25 13 11 11 11 11 12 12 14 16 16 16 15 16 15 16 17 18 18 18 16 16 16 16 16 16 15 14 15 14 14 12 9
17 15 15 16 14 14 15 15 15 16 16 14 13 12 12 14 13 15 17 16 18 17 17 17 15 14 16 15 15 14 13 14 15 16 16 16 16 16 15 14 14 13 12 10
13 14 16 14 15 15 14 14 14 12 10 13 13 15 15 13 18 19 15 19 19 19 18 18 16 16 16 15 12 12 15 15 16 16 17 16 15 15 15 14 13 12 12 12
Wind_Direction
273 265 261 263 263 263 274 277 275 287 282 262 264 265 267 271 273 274 273 276 276 276 281 277 276 273 274 288 288 279 281 281 278 279 282 283 275 274 262 269 273 269 275 279
274 266 256 252 248 247 273 274 276 289 276 263 261 265 268 277 270 269 273 272 271 271 275 277 278 280 287 285 280 277 282 278 275 279 283 279 277 274 271 270 278 274 275 281
271 269 259 251 244 244 272 277 274 276 274 272 268 266 268 270 273 271 272 270 272 276 270 273 276 278 284 298 285 285 282 276 272 274 284 280 281 281 273 277 274 274 274 281
267 265 262 247 233 239 266 272 273 277 277 269 268 271 274 268 269 277 270 274 266 267 271 268 273 277 281 295 293 287 285 273 275 277 280 286 281 279 278 273 276 279 284 280
261 260 257 248 232 235 260 265 272 275 275 278 282 270 264 267 273 278 281 270 271 273 268 268 268 272 279 282 288 296 286 276 278 275 280 279 277 275 277 278 277 277 282 283
229 216 234 244 229 227 264 269 281 277 275 273 273 271 275 271 275 283 276 279 279 274 275 277 273 273 270 272 277 278 285 283 281 274 277 279 274 276 275 280 278 276 277 282
226 221 217 208 201 209 261 267 276 274 271 271 269 271 272 271 272 270 277 285 280 285 290 287 276 272 270 270 269 271 275 278 284 285 277 267 278 288 283 283 286 282 284 288
232 224 215 204 198 188 238 264 264 284 276 271 269 269 270 272 272 271 272 269 276 283 287 288 278 274 272 267 264 264 266 273 275 277 280 278 278 284 288 285 283 285 288 291
210 214 214 207 196 192 228 251 258 273 290 279 276 275 274 271 273 275 272 274 275 277 282 280 276 269 273 272 271 266 262 262 262 270 277 277 282 292 293 290 282 291 289 293
201 199 201 203 198 193 206 256 225 240 193 281 295 286 282 286 282 277 277 278 278 270 268 270 274 276 276 269 269 273 268 264 259 264 273 279 282 288 290 277 286 299 299 300
198 195 192 191 192 192 195 205 209 192 256 282 289 281 293 298 293 283 283 279 271 266 261 268 271 272 276 276 276 274 271 269 267 266 269 276 287 288 275 286 290 295 302 303
213 190 189 188 187 186 188 251 221 217 256 291 291 271 212 253 294 296 288 272 263 268 265 272 282 270 273 273 271 281 276 272 276 273 275 283 294 283 287 289 290 294 297 296
224 197 187 187 189 190 190 210 236 221 268 288 284 278 293 280 265 284 279 277 260 256 266 271 278 286 280 265 269 281 284 293 285 286 284 284 284 281 282 286 289 294 297 299
231 193 182 184 185 188 187 228 215 205 283 284 282 277 231 270 274 268 257 244 245 245 247 254 268 272 287 274 275 281 286 288 290 292 288 291 291 279 280 286 290 294 297 296
227 214 177 178 184 189 222 238 223 209 248 309 317 312 307 309 287 251 240 237 232 234 243 251 254 270 277 276 282 287 292 285 286 287 296 306 302 286 281 288 289 288 304 311
226 219 172 169 189 200 240 259 251 243 273 299 309 321 318 313 284 222 227 230 232 232 246 250 260 249 267 283 284 294 301 304 301 294 293 296 317 307 299 295 290 298 317 343
224 201 165 190 161 221 249 276 256 171 286 315 319 306 40 247 243 220 223 224 235 248 253 251 247 253 265 269 286 322 3 343 13 329 324 311 323 305 310 303 299 295 294 296
151 125 119 126 127 243 266 295 117 180 313 329 254 231 235 239 212 208 221 238 246 263 255 259 255 264 252 258 276 299 307 302 287 286 295 293 302 300 305 311 312 300 296 292
102 104 119 201 261 271 280 13 340 299 319 234 229 230 238 240 224 236 241 252 253 265 253 261 257 258 259 264 280 277 291 299 300 289 286 299 304 305 310 316 313 307 300 293
95 79 297 285 294 81 331 300 294 285 228 225 236 239 233 243 236 240 244 239 236 245 255 273 255 249 241 257 266 268 282 298 310 308 313 320 315 315 311 305 304 302 297 291
325 320 333 339 81 314 288 292 238 218 220 228 239 230 229 247 235 250 255 266 275 261 266 273 265 252 256 266 279 298 306 311 316 322 325 323 320 317 315 315 311 301 295 289
156 132 146 152 191 249 227 205 204 213 221 224 237 234 232 241 234 253 240 235 245 262 278 280 281 281 287 294 300 306 315 322 321 328 340 343 339 327 318 319 317 318 314 303
149 134 131 152 155 202 196 198 204 214 215 209 214 224 220 216 235 261 257 265 270 281 280 275 287 303 314 318 324 334 341 343 351 352 358 345 336 327 318 317 314 330 352 9
125 123 128 165 210 215 205 204 209 208 212 198 195 213 225 236 256 265 272 272 271 281 288 294 309 321 341 347 345 347 349 354 355 340 336 343 348 338 332 326 331 4 8 349
160 145 154 193 218 219 218 216 225 210 196 191 230 255 270 265 286 289 292 288 283 289 297 320 334 351 350 353 359 358 358 5 343 350 351 359 4 2 352 340 340 343 358 5
210 182 181 183 213 229 230 231 240 238 226 234 253 276 285 279 293 285 282 289 289 302 319 333 343 348 353 357 351 9 1 344 352 354 358 3 6 20 11 347 337 338 344 338
331 265 222 264 246 254 267 267 268 278 271 272 291 285 290 310 293 293 313 305 313 321 331 329 326 325 329 333 343 330 312 329 337 342 348 357 360 17 20 8 355 346 341 342